Location: Spruce Knob
(38.6995°N, 79.5330°W)
Time: 23:01:54
(UTC-04:00)

ESTCUBE 1 - Visible Passes

Search period start: 28 March 2023 00:00
Search period end: 07 April 2023 00:00
Orbit: 642 x 655 km, 97.9° (Epoch: 28 March)

Date Brightness Start Highest point End Pass type
(mag) Time Alt. Az. Time Alt. Az. Time Alt. Az.
28 Mar ? 23:16:18 11° N 23:16:18 11° N 23:16:25 10° N visible
30 Mar ? 22:31:01 11° NNE 22:31:01 11° NNE 22:31:14 10° NNE visible
31 Mar ? 22:57:14 13° N 22:57:14 13° N 22:57:45 10° N visible
01 Apr ? 23:23:27 13° NNW 23:23:27 13° NNW 23:23:54 10° NNW visible
02 Apr ? 22:11:55 10° NNE 22:11:55 10° NNE 22:11:59 10° NNE visible
02 Apr ? 23:49:40 10° NNW 23:49:40 10° NNW 23:49:44 10° NNW visible
03 Apr ? 22:38:07 14° NNE 22:38:07 14° NNE 22:38:50 10° N visible
04 Apr ? 23:04:18 16° N 23:04:18 16° N 23:05:12 10° N visible
05 Apr ? 23:30:30 15° NNW 23:30:30 15° NNW 23:31:14 10° NNW visible
06 Apr ? 22:18:56 13° NNE 22:18:56 13° NNE 22:19:37 10° NNE visible
06 Apr ? 23:56:41 11° NNW 23:56:41 11° NNW 23:56:57 10° NNW visible
